• In Uzbekistan
  • List of Countries
  • For 7 days
  • Water Temperature
  • Satellite Maps
  • Weather Map
  • Weather Widgets
  • user-avatar
    Login

    Hourly Weather Rozdolivka

    Today, 18 December, Monday

    Time Temperature Precipitation Wind Pressure Humidity
    00:00 -4°C° 0 mm 5 mps 738 mmHg 78%
    01:00 -4°C° 0 mm 5 mps 738 mmHg 78%
    02:00 -2°C° 0 mm 4 mps 738 mmHg 80%
    03:00 -3°C° 0.2 mm 4 mps 738 mmHg 80%
    04:00 -4°C° 0.2 mm 5 mps 738 mmHg 81%
    05:00 -4°C° 0.2 mm 6 mps 738 mmHg 81%
    06:00 -4°C° 0.3 mm 6 mps 738 mmHg 81%
    07:00 -4°C° 0.3 mm 6 mps 738 mmHg 82%
    08:00 -4°C° 0 mm 6 mps 737 mmHg 82%
    09:00 -4°C° 0.2 mm 6 mps 738 mmHg 82%
    10:00 -4°C° 0.2 mm 7 mps 738 mmHg 81%
    11:00 -4°C° 0.2 mm 7 mps 738 mmHg 80%
    12:00 -4°C° 0.5 mm 7 mps 738 mmHg 82%
    13:00 -4°C° 0.5 mm 7 mps 738 mmHg 83%
    14:00 -4°C° 0.5 mm 7 mps 738 mmHg 84%
    15:00 -4°C° 0.3 mm 7 mps 738 mmHg 84%
    16:00 -4°C° 0.3 mm 7 mps 738 mmHg 84%
    17:00 -4°C° 0.3 mm 7 mps 738 mmHg 84%
    18:00 -4°C° 0.2 mm 7 mps 738 mmHg 83%
    19:00 -4°C° 0.2 mm 7 mps 738 mmHg 82%
    20:00 -4°C° 0.2 mm 7 mps 738 mmHg 81%
    21:00 -4°C° 0.1 mm 7 mps 738 mmHg 81%
    22:00 -4°C° 0.1 mm 7 mps 739 mmHg 81%
    23:00 -6°C° 0.1 mm 7 mps 739 mmHg 81%

    Tomorrow, 19 December, Tuesday

    Time Temperature Precipitation Wind Pressure Humidity
    00:00 -6°C° 0.1 mm 7 mps 739 mmHg 80%
    01:00 -6°C° 0.1 mm 7 mps 739 mmHg 80%
    02:00 -6°C° 0.1 mm 7 mps 739 mmHg 80%
    03:00 -6°C° 0 mm 7 mps 739 mmHg 80%
    04:00 -6°C° 0 mm 7 mps 740 mmHg 80%
    05:00 -6°C° 0 mm 7 mps 740 mmHg 80%
    06:00 -6°C° 0 mm 7 mps 740 mmHg 80%
    07:00 -6°C° 0 mm 7 mps 741 mmHg 80%
    08:00 -6°C° 0 mm 7 mps 741 mmHg 80%
    09:00 -6°C° 0 mm 7 mps 741 mmHg 78%
    10:00 -6°C° 0 mm 7 mps 742 mmHg 77%
    11:00 -4°C° 0 mm 7 mps 742 mmHg 76%
    12:00 -4°C° 0 mm 7 mps 742 mmHg 75%
    13:00 -4°C° 0 mm 7 mps 743 mmHg 75%
    14:00 -4°C° 0 mm 7 mps 743 mmHg 74%
    15:00 -4°C° 0 mm 7 mps 743 mmHg 75%
    16:00 -4°C° 0 mm 6 mps 743 mmHg 75%
    17:00 -5°C° 0 mm 6 mps 743 mmHg 76%
    18:00 -5°C° 0 mm 6 mps 743 mmHg 76%
    19:00 -5°C° 0 mm 6 mps 743 mmHg 76%
    20:00 -5°C° 0 mm 5 mps 744 mmHg 76%
    21:00 -5°C° 0 mm 5 mps 744 mmHg 76%
    22:00 -5°C° 0 mm 5 mps 744 mmHg 76%
    23:00 -5°C° 0 mm 5 mps 744 mmHg 76%

    Day after tomorrow, 20 December, Wednesday

    Time Temperature Precipitation Wind Pressure Humidity
    00:00 -5°C° 0 mm 5 mps 744 mmHg 77%
    01:00 -5°C° 0 mm 5 mps 744 mmHg 78%
    02:00 -5°C° 0 mm 5 mps 744 mmHg 79%
    03:00 -5°C° 0 mm 5 mps 744 mmHg 80%
    04:00 -5°C° 0 mm 5 mps 744 mmHg 81%
    05:00 -5°C° 0 mm 5 mps 743 mmHg 82%
    06:00 -5°C° 0 mm 5 mps 744 mmHg 82%
    07:00 -5°C° 0 mm 5 mps 744 mmHg 82%
    08:00 -5°C° 0 mm 5 mps 744 mmHg 82%
    09:00 -5°C° 0 mm 5 mps 744 mmHg 81%
    10:00 -5°C° 0 mm 5 mps 744 mmHg 81%
    11:00 -5°C° 0 mm 5 mps 744 mmHg 80%
    12:00 -4°C° 0 mm 5 mps 744 mmHg 79%
    13:00 -4°C° 0 mm 5 mps 744 mmHg 79%
    14:00 -3°C° 0 mm 4 mps 744 mmHg 78%
    15:00 -3°C° 0 mm 4 mps 744 mmHg 81%
    16:00 -4°C° 0 mm 3 mps 744 mmHg 83%
    17:00 -3°C° 0 mm 2 mps 744 mmHg 86%
    18:00 -3°C° 0 mm 2 mps 744 mmHg 87%
    19:00 -3°C° 0 mm 2 mps 745 mmHg 88%
    20:00 -4°C° 0 mm 2 mps 745 mmHg 90%
    21:00 -4°C° 0 mm 2 mps 745 mmHg 90%
    22:00 -3°C° 0 mm 2 mps 745 mmHg 91%
    23:00 -3°C° 0 mm 2 mps 746 mmHg 91%

    21 December, Thursday

    Time Temperature Precipitation Wind Pressure Humidity
    00:00 -3°C° 0 mm 2 mps 746 mmHg 90%
    01:00 -4°C° 0 mm 3 mps 746 mmHg 89%
    02:00 -4°C° 0 mm 3 mps 746 mmHg 89%
    03:00 -4°C° 0 mm 3 mps 746 mmHg 88%
    04:00 -4°C° 0 mm 2 mps 746 mmHg 88%
    05:00 -4°C° 0 mm 2 mps 746 mmHg 87%
    06:00 -4°C° 0 mm 2 mps 746 mmHg 87%
    07:00 -4°C° 0 mm 2 mps 746 mmHg 87%
    08:00 -5°C° 0 mm 2 mps 746 mmHg 86%
    09:00 -4°C° 0 mm 2 mps 746 mmHg 84%
    10:00 -4°C° 0 mm 3 mps 746 mmHg 81%
    11:00 -2°C° 0 mm 3 mps 747 mmHg 79%
    12:00 -2°C° 0 mm 3 mps 746 mmHg 78%
    13:00 -2°C° 0 mm 3 mps 746 mmHg 77%
    14:00 -2°C° 0 mm 3 mps 745 mmHg 76%
    15:00 -4°C° 0 mm 3 mps 745 mmHg 78%
    16:00 -3°C° 0 mm 2 mps 745 mmHg 81%
    17:00 -4°C° 0 mm 2 mps 744 mmHg 83%
    18:00 -4°C° 0 mm 2 mps 744 mmHg 83%
    19:00 -4°C° 0 mm 2 mps 744 mmHg 83%
    20:00 -4°C° 0 mm 2 mps 743 mmHg 83%
    21:00 -6°C° 0 mm 3 mps 743 mmHg 81%
    22:00 -6°C° 0 mm 3 mps 743 mmHg 80%
    23:00 -6°C° 0 mm 3 mps 742 mmHg 79%

    22 December, Friday

    Time Temperature Precipitation Wind Pressure Humidity
    00:00 -6°C° 0 mm 3 mps 742 mmHg 79%
    01:00 -6°C° 0 mm 3 mps 741 mmHg 79%
    02:00 -6°C° 0 mm 3 mps 741 mmHg 79%
    03:00 -6°C° 0 mm 3 mps 740 mmHg 79%
    04:00 -5°C° 0 mm 3 mps 740 mmHg 80%
    05:00 -5°C° 0 mm 3 mps 740 mmHg 81%
    06:00 -5°C° 0.1 mm 4 mps 739 mmHg 83%
    07:00 -5°C° 0.1 mm 4 mps 739 mmHg 85%
    08:00 -4°C° 0.1 mm 4 mps 739 mmHg 86%
    09:00 -4°C° 0.1 mm 5 mps 739 mmHg 86%
    10:00 -4°C° 0.1 mm 5 mps 738 mmHg 85%
    11:00 -3°C° 0.1 mm 6 mps 738 mmHg 84%
    12:00 -3°C° 0.2 mm 6 mps 738 mmHg 84%
    13:00 -2°C° 0.2 mm 6 mps 737 mmHg 83%
    14:00 -2°C° 0.2 mm 6 mps 737 mmHg 83%
    15:00 -2°C° 0.1 mm 6 mps 737 mmHg 83%
    16:00 -2°C° 0.1 mm 6 mps 737 mmHg 84%
    17:00 -2°C° 0.1 mm 5 mps 737 mmHg 84%
    18:00 -2°C° 0.1 mm 5 mps 737 mmHg 84%
    19:00 -3°C° 0.1 mm 6 mps 736 mmHg 85%
    20:00 -3°C° 0.1 mm 6 mps 736 mmHg 85%
    21:00 -3°C° 0.2 mm 6 mps 736 mmHg 85%
    22:00 -3°C° 0.2 mm 6 mps 736 mmHg 86%
    23:00 -3°C° 0.2 mm 7 mps 736 mmHg 86%

    23 December, Saturday

    Time Temperature Precipitation Wind Pressure Humidity
    00:00 -3°C° 0.2 mm 7 mps 736 mmHg 87%
    01:00 -3°C° 0.2 mm 7 mps 735 mmHg 88%
    02:00 -3°C° 0.2 mm 7 mps 735 mmHg 88%
    03:00 -3°C° 0.2 mm 6 mps 735 mmHg 88%
    04:00 -3°C° 0.2 mm 6 mps 735 mmHg 88%
    05:00 -3°C° 0.2 mm 6 mps 735 mmHg 88%
    06:00 -4°C° 0 mm 6 mps 735 mmHg 87%
    07:00 -4°C° 0 mm 5 mps 736 mmHg 86%
    08:00 -4°C° 0 mm 5 mps 736 mmHg 85%
    09:00 -3°C° 0 mm 4 mps 736 mmHg 85%
    10:00 -2°C° 0 mm 4 mps 736 mmHg 86%
    11:00 -1°C° 0 mm 3 mps 736 mmHg 86%
    12:00 -1°C° 0.1 mm 3 mps 735 mmHg 86%
    13:00 -1°C° 0.1 mm 3 mps 735 mmHg 87%
    14:00 -1°C° 0.1 mm 2 mps 735 mmHg 88%
    15:00 -1°C° 0.3 mm 2 mps 735 mmHg 89%
    16:00 -2°C° 0.3 mm 2 mps 735 mmHg 91%
    17:00 -2°C° 0.3 mm 2 mps 735 mmHg 93%
    18:00 -2°C° 0.1 mm 2 mps 735 mmHg 92%
    19:00 -3°C° 0.1 mm 2 mps 735 mmHg 92%
    20:00 -3°C° 0.1 mm 2 mps 736 mmHg 91%
    21:00 -4°C° 0 mm 2 mps 736 mmHg 91%
    22:00 -4°C° 0 mm 2 mps 737 mmHg 91%
    23:00 -4°C° 0 mm 2 mps 738 mmHg 91%
    Show more